[[{"header":{"parameterUnit":"m.s-1","parameterCategory":1,"la1":30.2991,"la2":30.254,"lo1":-89.0895,"lo2":-89.0444,"dy":0.0017,"dx":0.0017,"nx":28,"ny":28,"refTime":"2025-08-07T09:00:00:Z","depth":0,"parameterNumber":2,"parameterNumberName":"U-component_of_WINDS"},"data":[0,0,0,0,0,0,0,0,0,0,0,0,0,0,0,0,0,0,0,0,0,0,0,0,0,0,0,0,0,0,0,0,0,0,0,0,0,0,0,0,0,0,0,0,0,0,0,0,0,0,0,0,0,0,0,0,0,0,-3.7523,-3.7523,0,-3.7566,-3.7567,-3.7567,-3.745,-3.7446,-3.7443,-3.7439,-3.7484,-3.7488,-3.7493,0,0,0,0,0,0,0,0,0,0,0,0,0,-3.7337,-3.7341,-3.7522,-3.7523,-3.7524,-3.7566,-3.7567,-3.7567,-3.7451,-3.7446,-3.7442,-3.7438,-3.7482,-3.7488,-3.7493,0,0,0,0,0,0,0,0,0,0,0,0,0,-3.7403,-3.7342,-3.7522,-3.747,-3.7466,-3.7566,-3.7567,-3.7568,-3.7452,-3.7446,-3.7441,-3.7435,-3.7481,-3.7487,-3.7494,-3.7646,0,0,-3.7515,-3.7518,0,0,0,0,0,0,0,0,-3.7399,-3.741,-3.7478,-3.7474,-3.747,-3.7497,-3.7518,-3.7594,-3.7453,-3.7457,-3.7439,-3.7433,-3.7493,-3.7498,-3.7518,-3.7648,-3.765,-3.7516,-3.752,-3.7523,-3.7525,0,0,0,0,0,0,0,-3.7395,-3.7407,-3.754,-3.7479,-3.7474,-3.7445,-3.7448,-3.7532,-3.7505,-3.7456,-3.7448,-3.7455,-3.7489,-3.7512,-3.7519,-3.7651,-3.7516,-3.7522,-3.7526,-3.7529,-3.7908,-3.7913,0,0,0,0,0,0,-3.7397,-3.7404,-3.7538,-3.7541,-3.742,-3.7452,-3.7456,-3.7494,-3.7504,-3.75,-3.7459,-3.7449,-3.7503,-3.7511,-3.752,-3.7699,-3.7523,-3.7529,-3.7533,-3.7902,-3.7909,-3.7915,0,0,0,0,0,0,-3.7393,-3.741,-3.7537,-3.747,-3.7484,-3.7461,-3.7505,-3.7498,-3.752,-3.7506,-3.7501,-3.7488,-3.7499,-3.751,-3.7616,-3.7698,-3.7532,-3.7539,-3.7895,-3.7904,-3.7912,-3.8058,0,0,0,0,0,0,-3.7389,-3.7409,-3.7467,-3.7473,-3.7488,-3.7633,-3.751,-3.7502,-3.7532,-3.7519,-3.7531,-3.7528,-3.7496,-3.7606,-3.7623,-3.7705,-3.7544,-3.7887,-3.7899,-3.7909,-3.8045,-3.807,-3.8092,0,0,0,0,0,-3.7382,-3.7507,-3.7471,-3.7488,-3.756,-3.7637,-3.7646,-3.7607,-3.7539,-3.7597,-3.7588,-3.7527,-3.7687,-3.7618,-3.7635,-3.7721,-3.7882,-3.7896,-3.7909,-3.8035,-3.8066,-3.8091,0,0,0,0,0,0,-3.7512,-3.7506,-3.7467,-3.7596,-3.7618,-3.7617,-3.7689,-3.7641,-3.7682,-3.7668,-3.7617,-3.7621,-3.7736,-3.7739,-3.7662,-3.7869,-3.7773,-3.779,-3.7863,-3.7892,-3.7915,-3.7912,-3.755,0,0,0,0,0,-3.7555,-3.7619,-3.761,-3.7726,-3.7739,-3.7713,-3.7745,-3.7712,-3.7733,-3.7742,-3.774,-3.7763,-3.7817,-3.7855,-3.7904,-3.8045,-3.8046,-3.8113,-3.8136,-3.8155,-3.8171,-3.8245,-3.8275,-3.7959,-3.7959,-3.7959,0,0,-3.7646,-3.7651,-3.7694,-3.7752,-3.7765,-3.7831,-3.7721,-3.7796,-3.7845,-3.7753,-3.7852,-3.7853,-3.7874,-3.7998,-3.8052,-3.8004,-3.8258,-3.8172,-3.8188,-3.8193,-3.8262,-3.8292,-3.8319,-3.7968,-3.7967,-3.7965,0,0,-3.7845,-3.7856,-3.7952,-3.7968,-3.7989,-3.7971,-3.7994,-3.8001,-3.7998,-3.8097,-3.8029,-3.8086,-3.8182,-3.82,-3.8222,-3.8428,-3.8374,-3.8446,-3.8567,-3.8641,-3.8665,-3.8687,-3.8761,-3.8788,-3.8461,-3.8462,-3.8462,0,-3.7955,-3.8053,-3.8008,-3.8088,-3.8116,-3.8035,-3.8133,-3.815,-3.8187,-3.8208,-3.8153,-3.8271,-3.828,-3.8407,-3.8457,-3.8477,-3.8502,-3.8444,-3.8665,-3.8687,-3.8707,-3.8776,-3.8804,-3.847,-3.8469,-3.8469,-3.8468,0,-3.8187,-3.8256,-3.8332,-3.8369,-3.8405,-3.8494,-3.8462,-3.8504,-3.8468,-3.8456,-3.8558,-3.8566,-3.8616,-3.8643,-3.8609,-3.8766,-3.8735,-3.8674,-3.8576,-3.8746,-3.8811,-3.8837,-3.8483,-3.848,-3.8477,-3.8475,0,0,-3.8469,-3.8481,-3.8509,-3.8525,-3.8543,-3.8595,-3.868,-3.8729,-3.8766,-3.8794,-3.8863,-3.8946,-3.889,-3.8915,-3.8882,-3.8947,-3.9109,-3.8877,-3.8877,-3.892,-3.9282,-3.9328,-3.936,-3.9073,-3.9078,-3.9082,-3.928,0,-3.8666,-3.8811,-3.8773,-3.8918,-3.8981,-3.8906,-3.8979,-3.8998,-3.8989,-3.9041,-3.903,-3.909,-3.9011,-3.9025,-3.9086,-3.9077,-3.9181,-3.9062,-3.9138,-3.9141,-3.9135,-3.9393,-3.9442,-3.9629,-3.9305,-3.9309,-3.9313,0,-3.8914,-3.8952,-3.9104,-3.9111,-3.9136,-3.9203,-3.9244,-3.9295,-3.9315,-3.9303,-3.9331,-3.9286,-3.9369,-3.9271,-3.9385,-3.9305,-3.9334,-3.9334,-3.9341,-3.9346,-3.9237,-3.9406,-3.9687,-3.9716,-3.9352,-3.9349,-3.9346,0,-3.9105,-3.9194,-3.9295,-3.9311,-3.9322,-3.9371,-3.9378,-3.9392,-3.9424,-3.9461,-3.9481,-3.9527,-3.9552,-3.9588,-3.9556,-3.9488,-3.9676,-3.9575,-3.9669,-3.967,-3.9712,-3.971,-4.0002,-3.9731,-3.973,-3.973,-3.9729,0,-3.9328,-3.9424,-3.9381,-3.9444,-3.9549,-3.9504,-3.9609,-3.9607,-3.962,-3.9681,-3.9619,-3.9677,-3.9631,-3.9686,-3.9662,-3.976,-3.9772,-3.9765,-3.9757,-3.9771,-3.9772,-3.9789,-3.9775,-3.9737,-3.9735,-3.9734,-3.9733,0,-3.9559,-3.9534,-3.964,-3.9642,-3.9645,-3.9722,-3.9723,-3.9781,-3.9767,-3.9845,-3.9861,-3.9839,-3.99,-3.9872,-3.9935,-3.9919,-4.0046,-4.0021,-4.0039,-4.0033,-4.0128,-4.012,-4.0442,-4.0482,-4.0185,-4.0188,-4.019,0,-3.9703,-3.9775,-3.9784,-3.9821,-3.9832,-3.9891,-3.9923,-3.9882,-3.9918,-3.9946,-4.0001,-4.0057,-4.0099,-4.02,-4.019,-4.0238,-4.0214,-4.0323,-4.0221,-4.0232,-4.0216,-4.0212,-4.0219,-4.0344,-4.0348,-4.035,-4.0353,0,-3.9962,-3.9946,-3.9995,-4.004,-4.008,-4.0113,-4.0141,-4.0175,-4.0134,-4.0178,-4.024,-4.0273,-4.0338,-4.0394,-4.0436,-4.0443,-4.0392,-4.0385,-4.0409,-4.0424,-4.0432,-4.0429,-4.0096,-4.0378,-4.0375,-4.0374,-4.0372,-4.0371,-4.0154,-4.0214,-4.023,-4.0286,-4.0303,-4.0331,-4.0385,-4.0378,-4.0429,-4.0479,-4.0451,-4.0523,-4.0541,-4.0593,-4.0606,-4.0662,-4.0619,-4.0654,-4.0663,-4.0672,-4.0685,-4.0423,-4.067,-4.0669,-4.0668,-4.0667,-4.0667,0,-4.0409,-4.0416,-4.0468,-4.0509,-4.0554,-4.0501,-4.0529,-4.057,-4.0634,-4.0655,-4.0698,-4.0769,-4.0823,-4.0817,-4.0867,-4.0913,-4.089,-4.0927,-4.0923,-4.0926,-4.0721,-4.0695,-4.0944,-4.0944,-4.0944,-4.0944,-4.0944,-4.0944,-4.0547,-4.0646,-4.0632,-4.0739,-4.0745,-4.0815,-4.0835,-4.0861,-4.0877,-4.0959,-4.1003,-4.0999,-4.101,-4.1059,-4.1107,-4.1103,-4.1125,-4.117,-4.1159,-4.0967,-4.094,-4.0914,-4.0889,-4.1175,-4.1175,-4.1359,-4.136,-4.1362]},{"header":{"parameterUnit":"m.s-1","parameterCategory":1,"la1":30.2991,"la2":30.254,"lo1":-89.0895,"lo2":-89.0444,"dy":0.0017,"dx":0.0017,"nx":28,"ny":28,"refTime":"2025-08-07T09:00:00:Z","depth":0,"parameterNumber":3,"parameterNumberName":"V-component_of_WINDS"},"data":[0,0,0,0,0,0,0,0,0,0,0,0,0,0,0,0,0,0,0,0,0,0,0,0,0,0,0,0,0,0,0,0,0,0,0,0,0,0,0,0,0,0,0,0,0,0,0,0,0,0,0,0,0,0,0,0,0,0,-0.8606,-0.8606,0,-0.8615,-0.8615,-0.8615,-0.8632,-0.8632,-0.8632,-0.8633,-0.864,-0.864,-0.864,0,0,0,0,0,0,0,0,0,0,0,0,0,-0.86,-0.86,-0.8606,-0.8606,-0.8606,-0.8615,-0.8615,-0.8615,-0.8632,-0.8632,-0.8633,-0.8633,-0.864,-0.864,-0.864,0,0,0,0,0,0,0,0,0,0,0,0,0,-0.8605,-0.86,-0.8606,-0.8615,-0.8616,-0.8615,-0.8615,-0.8615,-0.8632,-0.8632,-0.8633,-0.8633,-0.864,-0.864,-0.864,-0.8629,0,0,-0.8639,-0.8639,0,0,0,0,0,0,0,0,-0.8605,-0.8605,-0.8614,-0.8615,-0.8616,-0.8623,-0.8616,-0.862,-0.8632,-0.8626,-0.8633,-0.8633,-0.8634,-0.8634,-0.8635,-0.8629,-0.863,-0.8639,-0.8639,-0.8639,-0.8639,0,0,0,0,0,0,0,-0.8604,-0.8605,-0.8609,-0.8614,-0.8615,-0.8618,-0.862,-0.8616,-0.8627,-0.8626,-0.8628,-0.8629,-0.8634,-0.8635,-0.8635,-0.863,-0.8639,-0.8639,-0.8639,-0.8639,-0.8613,-0.8612,0,0,0,0,0,0,-0.8603,-0.8605,-0.8609,-0.861,-0.8612,-0.8618,-0.8619,-0.862,-0.8627,-0.8629,-0.8628,-0.8629,-0.8635,-0.8635,-0.8635,-0.8621,-0.8639,-0.8639,-0.8639,-0.8613,-0.8613,-0.8612,0,0,0,0,0,0,-0.8603,-0.8603,-0.8609,-0.8607,-0.8608,-0.8618,-0.8618,-0.862,-0.862,-0.8628,-0.863,-0.8627,-0.8635,-0.8636,-0.863,-0.8622,-0.8639,-0.8639,-0.8614,-0.8613,-0.8612,-0.8594,0,0,0,0,0,0,-0.8603,-0.8603,-0.86,-0.8607,-0.8608,-0.8604,-0.8618,-0.862,-0.862,-0.8622,-0.8628,-0.8629,-0.8636,-0.863,-0.863,-0.8622,-0.8639,-0.8615,-0.8614,-0.8613,-0.8595,-0.8592,-0.859,0,0,0,0,0,-0.8602,-0.8594,-0.86,-0.86,-0.8605,-0.8604,-0.8604,-0.8613,-0.862,-0.8616,-0.862,-0.8629,-0.8623,-0.8629,-0.8629,-0.8621,-0.8615,-0.8614,-0.8613,-0.8596,-0.8593,-0.859,0,0,0,0,0,0,-0.8586,-0.8596,-0.8602,-0.8596,-0.8599,-0.8606,-0.8602,-0.8609,-0.861,-0.8611,-0.8621,-0.8622,-0.8614,-0.8617,-0.8624,-0.8609,-0.862,-0.8619,-0.8608,-0.8605,-0.8602,-0.8601,-0.8638,0,0,0,0,0,-0.8582,-0.8581,-0.8589,-0.8583,-0.8584,-0.8593,-0.8593,-0.8599,-0.8602,-0.8603,-0.8608,-0.8609,-0.8608,-0.8607,-0.8606,-0.8596,-0.8596,-0.859,-0.8587,-0.8585,-0.8584,-0.8576,-0.8573,-0.8608,-0.8608,-0.8608,0,0,-0.8573,-0.8578,-0.8577,-0.858,-0.8583,-0.858,-0.8594,-0.8591,-0.8589,-0.8603,-0.8597,-0.86,-0.8603,-0.8594,-0.8591,-0.8597,-0.8574,-0.8584,-0.8582,-0.8581,-0.8574,-0.8571,-0.8568,-0.8607,-0.8607,-0.8607,0,0,-0.8555,-0.856,-0.8554,-0.8557,-0.8561,-0.8566,-0.8565,-0.8571,-0.8574,-0.8568,-0.8578,-0.8575,-0.8573,-0.8573,-0.8574,-0.8554,-0.8561,-0.8554,-0.854,-0.8532,-0.853,-0.8527,-0.8518,-0.8515,-0.8552,-0.8552,-0.8552,0,-0.8543,-0.8541,-0.8551,-0.8547,-0.8547,-0.8559,-0.8553,-0.8555,-0.8558,-0.8557,-0.8564,-0.8559,-0.8562,-0.8553,-0.8548,-0.8549,-0.8546,-0.8553,-0.8529,-0.8527,-0.8525,-0.8516,-0.8513,-0.8551,-0.8551,-0.8551,-0.8551,0,-0.8525,-0.8523,-0.8518,-0.8521,-0.8521,-0.8516,-0.8523,-0.8522,-0.8527,-0.8532,-0.8525,-0.8529,-0.8528,-0.8526,-0.8532,-0.8517,-0.852,-0.8528,-0.8539,-0.852,-0.8512,-0.851,-0.8549,-0.855,-0.855,-0.855,0,0,-0.8498,-0.8505,-0.8503,-0.8504,-0.8508,-0.8506,-0.8501,-0.85,-0.8497,-0.8499,-0.8494,-0.849,-0.8497,-0.8497,-0.8503,-0.8497,-0.8478,-0.8505,-0.8505,-0.8498,-0.8459,-0.8452,-0.8449,-0.8483,-0.8482,-0.8482,-0.8459,0,-0.8481,-0.8473,-0.848,-0.847,-0.8467,-0.8478,-0.8472,-0.8474,-0.8477,-0.8474,-0.8478,-0.8474,-0.8484,-0.8484,-0.8479,-0.8482,-0.847,-0.8484,-0.8476,-0.8476,-0.8474,-0.8445,-0.8438,-0.8416,-0.8456,-0.8455,-0.8455,0,-0.8459,-0.8459,-0.8449,-0.8452,-0.8451,-0.8446,-0.8445,-0.8443,-0.8444,-0.8446,-0.8445,-0.8452,-0.8445,-0.8457,-0.8446,-0.8455,-0.8452,-0.8453,-0.8453,-0.8451,-0.8464,-0.8441,-0.8409,-0.8405,-0.8451,-0.8451,-0.8451,0,-0.8438,-0.8436,-0.8429,-0.8429,-0.8433,-0.8429,-0.843,-0.8432,-0.843,-0.8429,-0.8427,-0.8425,-0.8424,-0.8421,-0.8426,-0.8434,-0.8414,-0.8427,-0.8415,-0.8415,-0.841,-0.841,-0.8375,-0.841,-0.841,-0.841,-0.841,0,-0.8417,-0.841,-0.8419,-0.8415,-0.8406,-0.8414,-0.8405,-0.8407,-0.8408,-0.8403,-0.8412,-0.8407,-0.8415,-0.841,-0.8414,-0.8403,-0.8403,-0.8404,-0.8405,-0.8402,-0.8402,-0.84,-0.8401,-0.841,-0.841,-0.841,-0.841,0,-0.8393,-0.8399,-0.8391,-0.8395,-0.8396,-0.8389,-0.8392,-0.8387,-0.839,-0.8383,-0.8382,-0.8387,-0.8382,-0.8387,-0.8382,-0.8384,-0.837,-0.8374,-0.8369,-0.837,-0.8357,-0.8358,-0.8319,-0.8313,-0.8354,-0.8353,-0.8353,0,-0.8378,-0.8373,-0.8376,-0.8373,-0.8374,-0.837,-0.8367,-0.8375,-0.8372,-0.8371,-0.8366,-0.8361,-0.8358,-0.8348,-0.835,-0.8346,-0.8348,-0.8335,-0.8348,-0.8345,-0.8346,-0.8346,-0.8344,-0.8332,-0.8332,-0.8331,-0.8331,0,-0.8351,-0.8354,-0.8351,-0.8349,-0.8346,-0.8344,-0.8343,-0.834,-0.8347,-0.8343,-0.8338,-0.8335,-0.8329,-0.8323,-0.8319,-0.8319,-0.8325,-0.8327,-0.8324,-0.8321,-0.8317,-0.8317,-0.8361,-0.8328,-0.8328,-0.8328,-0.8329,-0.8329,-0.833,-0.8325,-0.8326,-0.8321,-0.8321,-0.8319,-0.8314,-0.8316,-0.8312,-0.8308,-0.8312,-0.8305,-0.8303,-0.8299,-0.8298,-0.8291,-0.8296,-0.8292,-0.829,-0.8289,-0.8286,-0.832,-0.829,-0.829,-0.829,-0.8291,-0.8291,0,-0.8303,-0.8303,-0.8299,-0.8297,-0.8293,-0.83,-0.8298,-0.8294,-0.8287,-0.8286,-0.8282,-0.8274,-0.8268,-0.8269,-0.8264,-0.8258,-0.826,-0.8256,-0.8255,-0.8255,-0.8283,-0.8285,-0.8253,-0.8253,-0.8253,-0.8253,-0.8254,-0.8254,-0.8288,-0.8278,-0.828,-0.827,-0.8271,-0.8263,-0.8261,-0.8259,-0.8258,-0.8249,-0.8244,-0.8245,-0.8244,-0.8237,-0.8231,-0.8232,-0.8228,-0.8222,-0.8224,-0.825,-0.8253,-0.8257,-0.8259,-0.8222,-0.8222,-0.8196,-0.8196,-0.8196]}]]